Indianapolis, IN

2:19 PM EST on November 21, 2019 (GMT -0500)
Indianapolis International

Weather History for KIND - September, 2019

Change the Weather History Date:

Monday, September 2, 2019

  Actual Average Record
Temperature  
Mean Temperature 73 °F 72 °F  
Max Temperature 82 °F 82 °F 100 °F (1953)
Min Temperature 64 °F 62 °F 45 °F (1885)
Degree Days  
Heating Degree Days 0 0  
Month to date heating degree days 0 0  
Since 1 July heating degree days 0 4  
Cooling Degree Days 8 7  
Month to date cooling degree days 15 15  
Year to date cooling degree days 1054 936  
Growing Degree Days 22 (Base 50)    
Moisture  
Dew Point 64 °F    
Average Humidity 77    
Maximum Humidity 100    
Minimum Humidity 54    
Precipitation  
Precipitation 0.00 in 0.10 in 2.10 in (1879)
Month to date precipitation T 0.20  
Year to date precipitation 36.55 29.53  
Snow  
Snow 0.00 in 0.00 in 0.00 in ()
Month to date snowfall 0.0 0.0  
Since 1 July snowfall 0.0 0.0  
Since 1 September snowfall 0.0 0.0  
Snow Depth 0.00 in    
Sea Level Pressure  
Sea Level Pressure 30.09 in    
Wind  
Wind Speed 5 mph (NNW)    
Max Wind Speed 10 mph    
Max Gust Speed 13 mph    
Visibility 8 miles    
Events Fog    
T = Trace of Precipitation, MM = Missing Value Source: NWS Daily Summary

Daily Weather History Graph

Daily Weather History Graph

Search for Another Location

Airport or City:

Astronomy

Sep. 02, 2019 Rise Set
Actual Time 7:13 AM EDT 8:15 PM EDT
Civil Twilight 6:46 AM EDT 8:42 PM EDT
Nautical Twilight 6:13 AM EDT 9:15 PM EDT
Astronomical Twilight 5:39 AM EDT 9:49 PM EDT
Moon 10:55 AM EDT (9/2) 10:37 PM EDT (9/2)
Length of Visible Light 13h 56m
Length of Day
13h 01m
Waxing Crescent, 15% of the Moon is Illuminated
Sep 2
Waxing Crescent
Sep 5
First Quarter
Sep 14
Full
Sep 21
Last Quarter
Sep 28
New

Hourly Weather History & Observations

Time (EDT) Temp. Heat Index Dew Point Humidity Pressure Visibility Wind Dir Wind Speed Gust Speed Precip Events Conditions
12:54 AM 69.1 °F - 66.0 °F 90% 30.06 in 10.0 mi Calm Calm - N/A   Scattered Clouds
1:54 AM 66.9 °F - 64.9 °F 93% 30.06 in 10.0 mi West 3.5 mph - N/A   Partly Cloudy
2:54 AM 66.9 °F - 66.0 °F 97% 30.06 in 9.0 mi Calm Calm - N/A   Overcast
3:54 AM 66.0 °F - 64.9 °F 96% 30.06 in 7.0 mi NW 4.6 mph - N/A   Scattered Clouds
4:19 AM 66.0 °F - 64.9 °F 96% 30.09 in 7.0 mi NW 6.9 mph - N/A   Overcast
4:44 AM 66.0 °F - 64.9 °F 96% 30.08 in 9.0 mi NW 5.8 mph - N/A   Mostly Cloudy
4:54 AM 64.9 °F - 64.9 °F 100% 30.07 in 8.0 mi NW 4.6 mph - N/A   Mostly Cloudy
5:54 AM 66.0 °F - 64.9 °F 96% 30.08 in 7.0 mi NNW 5.8 mph - N/A   Scattered Clouds
6:30 AM 64.9 °F - 64.9 °F 100% 30.10 in 2.5 mi NNW 8.1 mph - N/A   Scattered Clouds
6:33 AM 64.9 °F - 64.9 °F 100% 30.10 in 1.5 mi NNW 8.1 mph - N/A   Mostly Cloudy
6:43 AM 64.9 °F - 64.9 °F 100% 30.10 in 0.2 mi NNW 8.1 mph - N/A Fog Fog
6:54 AM 64.9 °F - 64.9 °F 100% 30.09 in 0.2 mi North 8.1 mph - N/A Fog Fog
7:54 AM 66.0 °F - 66.0 °F 100% 30.10 in 0.2 mi NNW 6.9 mph - N/A   Overcast
8:03 AM 66.0 °F - 66.0 °F 100% 30.11 in 0.8 mi NNW 5.8 mph - N/A   Overcast
8:15 AM 66.0 °F - 64.9 °F 96% 30.12 in 2.5 mi North 8.1 mph - N/A   Overcast
8:54 AM 66.9 °F - 64.9 °F 93% 30.12 in 2.5 mi North 4.6 mph - N/A   Overcast
9:46 AM 68.0 °F - 64.0 °F 87% 30.14 in 2.5 mi North 9.2 mph - N/A   Overcast
9:54 AM 68.0 °F - 64.0 °F 87% 30.13 in 8.0 mi North 9.2 mph - N/A   Overcast
10:30 AM 70.0 °F - 64.9 °F 84% 30.14 in 7.0 mi North 4.6 mph - N/A   Mostly Cloudy
10:54 AM 71.1 °F - 64.0 °F 78% 30.13 in 8.0 mi NNE 5.8 mph - N/A   Overcast
11:54 AM 73.9 °F - 64.9 °F 73% 30.13 in 10.0 mi Calm Calm - N/A   Mostly Cloudy
12:35 PM 75.0 °F - 63.0 °F 66% 30.14 in 10.0 mi Calm Calm - N/A   Mostly Cloudy
12:51 PM 77.0 °F - 64.4 °F 65% 30.14 in 10.0 mi WNW 4.6 mph - N/A   Mostly Cloudy
12:54 PM 78.1 °F - 64.0 °F 62% 30.12 in 10.0 mi NNW 5.8 mph - N/A   Mostly Cloudy
1:38 PM 75.9 °F - 62.1 °F 62% 30.12 in 10.0 mi Calm Calm - N/A   Mostly Cloudy
1:54 PM 77.0 °F - 62.1 °F 60% 30.11 in 10.0 mi Variable 3.5 mph - N/A   Mostly Cloudy
2:54 PM 79.0 °F - 62.1 °F 56% 30.09 in 10.0 mi ENE 4.6 mph - N/A   Scattered Clouds
3:54 PM 81.0 °F 81.9 °F 62.1 °F 52% 30.08 in 10.0 mi Variable 3.5 mph - N/A   Scattered Clouds
4:54 PM 80.1 °F 81.2 °F 62.1 °F 54% 30.08 in 10.0 mi WNW 4.6 mph - N/A   Scattered Clouds
5:54 PM 81.0 °F 81.9 °F 62.1 °F 52% 30.07 in 10.0 mi WNW 5.8 mph - N/A   Scattered Clouds
6:54 PM 79.0 °F - 62.1 °F 56% 30.07 in 10.0 mi NW 9.2 mph - N/A   Partly Cloudy
7:54 PM 75.0 °F - 63.0 °F 66% 30.06 in 10.0 mi NNW 6.9 mph - N/A   Partly Cloudy
8:54 PM 72.0 °F - 64.0 °F 76% 30.06 in 10.0 mi NW 4.6 mph - N/A   Partly Cloudy
9:54 PM 72.0 °F - 64.0 °F 76% 30.07 in 10.0 mi NNW 4.6 mph - N/A   Partly Cloudy
10:54 PM 71.1 °F - 63.0 °F 75% 30.07 in 10.0 mi North 4.6 mph - N/A   Mostly Cloudy
11:54 PM 69.1 °F - 63.0 °F 81% 30.07 in 10.0 mi Calm Calm - N/A   Scattered Clouds